Oakes, ND

10:53 PM CST on December 09, 2016 (GMT -0600)
Oakes

Weather History for K2D5 - November, 2012

Change the Weather History Date:

Wednesday, November 21, 2012

  Actual Average (KP67) Record (KP67)
Temperature  
Mean Temperature 44 °F -  
Max Temperature 60 °F 22 °F 24 °F (1997)
Min Temperature 28 °F 7 °F -2 °F (1996)
Degree Days  
Heating Degree Days 21    
Moisture  
Dew Point 34 °F    
Average Humidity 81    
Maximum Humidity 100    
Minimum Humidity 42    
Precipitation  
Precipitation 0.00 in - - ()
Sea Level Pressure  
Sea Level Pressure 29.74 in    
Wind  
Wind Speed 7 mph (South)    
Max Wind Speed 15 mph    
Max Gust Speed -    
Visibility 10 miles    
Events      
Averages and records for this station are not official NWS values.
T = Trace of Precipitation, MM = Missing Value Source: NWS Daily Summary

Daily Weather History Graph

Daily Weather History Graph

Search for Another Location

Airport or City:

Trip Planner

Search our weather history database for the weather conditions in past years. The results will help you decide how hot, cold, wet, or windy it might be!

Date:

Astronomy

Nov. 21, 2012 Rise Set
Actual Time 7:42 AM CST 4:53 PM CST
Civil Twilight 7:09 AM CST 5:27 PM CST
Nautical Twilight 6:32 AM CST 6:04 PM CST
Astronomical Twilight 5:56 AM CST 6:39 PM CST
Moon 1:29 PM CST (11/21) 12:42 AM CST (11/21)
Length of Visible Light 10h 18m
Length of Day
9h 11m
First Quarter, 62% of the Moon is Illuminated
Nov 21
First Quarter
Nov 28
Full
Dec 6
Last Quarter
Dec 13
New
Dec 19
First Quarter

Hourly Weather History & Observations

Time (CST) Temp. Windchill Dew Point Humidity Pressure Visibility Wind Dir Wind Speed Gust Speed Precip Events Conditions
12:15 AM 32.0 °F 25.6 °F 32.0 °F 100% 29.89 in 10.0 mi South 6.9 mph - N/A   Clear
12:35 AM 32.0 °F 24.8 °F 32.0 °F 100% 29.89 in 10.0 mi SSE 8.1 mph - N/A   Clear
12:55 AM 32.0 °F 24.2 °F 32.0 °F 100% 29.89 in 10.0 mi South 9.2 mph - N/A   Unknown
1:15 AM 32.0 °F 25.6 °F 32.0 °F 100% 29.89 in 10.0 mi South 6.9 mph - N/A   Unknown
1:35 AM 32.0 °F 24.8 °F 32.0 °F 100% 29.88 in 10.0 mi South 8.1 mph - N/A   Unknown
1:55 AM 32.0 °F 25.6 °F 32.0 °F 100% 29.87 in 10.0 mi SSE 6.9 mph - N/A   Unknown
2:15 AM 30.2 °F 23.4 °F 30.2 °F 100% 29.88 in 10.0 mi South 6.9 mph - N/A   Unknown
2:35 AM 32.0 °F 24.2 °F 32.0 °F 100% 29.89 in 10.0 mi SSW 9.2 mph - N/A   Unknown
2:55 AM 32.0 °F 25.6 °F 32.0 °F 100% 29.89 in 10.0 mi South 6.9 mph - N/A   Unknown
3:15 AM 30.2 °F 23.4 °F 30.2 °F 100% 29.89 in 10.0 mi South 6.9 mph - N/A   Unknown
3:35 AM 32.0 °F 23.0 °F 32.0 °F 100% 29.88 in 10.0 mi South 11.5 mph - N/A   Unknown
3:55 AM 32.0 °F 24.8 °F 32.0 °F 100% 29.88 in 10.0 mi SSE 8.1 mph - N/A   Unknown
4:15 AM 30.2 °F 21.3 °F 30.2 °F 100% 29.88 in 10.0 mi South 10.4 mph - N/A   Unknown
4:35 AM 32.0 °F 26.4 °F 32.0 °F 100% 29.87 in 10.0 mi SSE 5.8 mph - N/A   Unknown
4:55 AM 30.2 °F 25.4 °F 30.2 °F 100% 29.87 in 10.0 mi South 4.6 mph - N/A   Unknown
5:15 AM 28.4 °F 24.6 °F 28.4 °F 100% 29.87 in 10.0 mi SSE 3.5 mph - N/A   Unknown
5:35 AM 30.2 °F 23.4 °F 30.2 °F 100% 29.86 in 10.0 mi South 6.9 mph - N/A   Unknown
5:55 AM 32.0 °F 26.4 °F 32.0 °F 100% 29.86 in 10.0 mi South 5.8 mph - N/A   Unknown
6:15 AM 32.0 °F 26.4 °F 32.0 °F 100% 29.87 in 10.0 mi South 5.8 mph - N/A   Unknown
6:35 AM 32.0 °F 25.6 °F 32.0 °F 100% 29.87 in 10.0 mi South 6.9 mph - N/A   Unknown
6:55 AM 32.0 °F 26.4 °F 32.0 °F 100% 29.86 in 10.0 mi South 5.8 mph - N/A   Unknown
7:15 AM 32.0 °F 24.8 °F 32.0 °F 100% 29.87 in 10.0 mi South 8.1 mph - N/A   Unknown
7:35 AM 32.0 °F 23.0 °F 32.0 °F 100% 29.86 in 10.0 mi South 11.5 mph - N/A   Unknown
7:55 AM 32.0 °F 25.6 °F 32.0 °F 100% 29.85 in 10.0 mi South 6.9 mph - N/A   Unknown
8:15 AM 32.0 °F 26.4 °F 32.0 °F 100% 29.84 in 10.0 mi South 5.8 mph - N/A   Unknown
8:35 AM 32.0 °F 28.7 °F 32.0 °F 100% 29.84 in 10.0 mi SE 3.5 mph - N/A   Unknown
8:55 AM 32.0 °F 28.7 °F 32.0 °F 100% 29.85 in 10.0 mi East 3.5 mph - N/A   Unknown
9:15 AM 33.8 °F 30.8 °F 33.8 °F 100% 29.84 in 10.0 mi ESE 3.5 mph - N/A   Unknown
9:35 AM 35.6 °F 32.8 °F 35.6 °F 100% 29.85 in 10.0 mi SE 3.5 mph - N/A   Unknown
9:55 AM 37.4 °F 33.8 °F 35.6 °F 93% 29.84 in 10.0 mi SE 4.6 mph - N/A   Clear
10:15 AM 39.2 °F 34.2 °F 35.6 °F 87% 29.84 in 10.0 mi South 6.9 mph - N/A   Clear
10:35 AM 41.0 °F 37.1 °F 35.6 °F 81% 29.83 in 10.0 mi South 5.8 mph - N/A   Clear
10:55 AM 44.6 °F 40.2 °F 35.6 °F 71% 29.82 in 10.0 mi SSE 8.1 mph - N/A   Clear
11:15 AM 46.4 °F 42.4 °F 35.6 °F 66% 29.80 in 10.0 mi SE 8.1 mph - N/A   Clear
11:35 AM 50.0 °F - 35.6 °F 58% 29.79 in 10.0 mi South 8.1 mph - N/A   Clear
11:55 AM 51.8 °F - 37.4 °F 58% 29.77 in 10.0 mi South 10.4 mph - N/A   Clear
12:15 PM 53.6 °F - 37.4 °F 54% 29.76 in 10.0 mi South 9.2 mph - N/A   Clear
12:35 PM 53.6 °F - 37.4 °F 54% 29.74 in 10.0 mi SSE 9.2 mph - N/A   Clear
12:55 PM 55.4 °F - 37.4 °F 51% 29.73 in 10.0 mi SSE 8.1 mph - N/A   Clear
1:15 PM 57.2 °F - 37.4 °F 48% 29.72 in 10.0 mi SSE 9.2 mph - N/A   Clear
1:35 PM 59.0 °F - 37.4 °F 45% 29.70 in 10.0 mi SSE 9.2 mph - N/A   Clear
1:55 PM 59.0 °F - 37.4 °F 45% 29.69 in 7.0 mi SSE 9.2 mph - N/A   Clear
2:15 PM 59.0 °F - 37.4 °F 45% 29.68 in 5.0 mi SSE 9.2 mph - N/A   Haze
2:35 PM 59.0 °F - 37.4 °F 45% 29.67 in 7.0 mi SSE 9.2 mph - N/A   Clear
2:55 PM 60.8 °F - 37.4 °F 42% 29.66 in 10.0 mi SE 10.4 mph - N/A   Clear
3:15 PM 60.8 °F - 37.4 °F 42% 29.65 in 10.0 mi SE 15.0 mph - N/A   Clear
3:35 PM 59.0 °F - 37.4 °F 45% 29.64 in 10.0 mi SE 11.5 mph - N/A   Clear
3:55 PM 57.2 °F - 37.4 °F 48% 29.63 in 10.0 mi SE 8.1 mph - N/A   Clear
4:15 PM 57.2 °F - 37.4 °F 48% 29.64 in 10.0 mi SE 4.6 mph - N/A   Clear
4:35 PM 55.4 °F - 39.2 °F 54% 29.64 in 10.0 mi South 4.6 mph - N/A   Clear
4:55 PM 51.8 °F - 39.2 °F 62% 29.63 in 10.0 mi SSE 5.8 mph - N/A   Clear
5:15 PM 46.4 °F 41.9 °F 35.6 °F 66% 29.62 in 9.0 mi SE 9.2 mph - N/A   Clear
5:35 PM 44.6 °F 38.4 °F 35.6 °F 71% 29.60 in 10.0 mi ESE 12.7 mph - N/A   Clear
5:55 PM 42.8 °F 39.3 °F 35.6 °F 76% 29.60 in 10.0 mi South 5.8 mph - N/A   Clear
6:15 PM 44.6 °F 40.7 °F 35.6 °F 71% 29.60 in 10.0 mi SSE 6.9 mph - N/A   Clear
6:35 PM 46.4 °F - 35.6 °F 66% 29.60 in 10.0 mi Calm Calm - N/A   Clear
6:55 PM 44.6 °F - 35.6 °F 71% 29.59 in 10.0 mi Calm Calm - N/A   Clear
7:15 PM 41.0 °F - 35.6 °F 81% 29.58 in 9.0 mi Calm Calm - N/A   Clear
7:35 PM 41.0 °F - 35.6 °F 81% 29.58 in 10.0 mi Calm Calm - N/A   Clear
7:55 PM 41.0 °F 38.0 °F 37.4 °F 87% 29.57 in 10.0 mi SSW 4.6 mph - N/A   Clear
8:15 PM 41.0 °F 36.4 °F 35.6 °F 81% 29.57 in 10.0 mi SW 6.9 mph - N/A   Clear
8:35 PM 41.0 °F 36.4 °F 35.6 °F 81% 29.56 in 10.0 mi SSW 6.9 mph - N/A   Clear
8:55 PM 39.2 °F 33.0 °F 33.8 °F 81% 29.55 in 10.0 mi SSW 9.2 mph - N/A   Clear
9:15 PM 35.6 °F 28.6 °F 32.0 °F 87% 29.55 in 10.0 mi SSW 9.2 mph - N/A   Clear
9:35 PM 33.8 °F 27.0 °F 32.0 °F 93% 29.56 in 10.0 mi South 8.1 mph - N/A   Clear
9:55 PM 39.2 °F 32.0 °F 33.8 °F 81% 29.56 in 10.0 mi SSW 11.5 mph - N/A   Clear
10:15 PM 35.6 °F 30.7 °F 32.0 °F 87% 29.56 in 10.0 mi South 5.8 mph - N/A   Clear
10:35 PM 35.6 °F 29.2 °F 32.0 °F 87% 29.55 in 10.0 mi South 8.1 mph - N/A   Clear
10:55 PM 37.4 °F 33.8 °F 32.0 °F 81% 29.56 in 10.0 mi SSW 4.6 mph - N/A   Clear
11:15 PM 35.6 °F 29.9 °F 32.0 °F 87% 29.55 in 10.0 mi SSW 6.9 mph - N/A   Clear
11:35 PM 37.4 °F 32.8 °F 32.0 °F 81% 29.54 in 10.0 mi SW 5.8 mph - N/A   Clear
11:55 PM 35.6 °F 31.7 °F 32.0 °F 87% 29.56 in 10.0 mi West 4.6 mph - N/A   Clear